SCP
0 0 0 0 -0 -0 0 0 0 0 0 0 0 0 0 0 0 0 0 0 0 0 0 0 0 0 0 0 0 0 0 0 0 0 0 0 0 0 0 0 0 0 0 0
0 0 0 0 -0 0 0 0 0 0 0 0 0 0 0 0 0 0 0 0 0 0 0 0 0 0 0 0 0 0 0 0 0 0 0 0 0 0 0 0 0 0 0 0
0 0 0 0 -0 0 0 0 0 0 0 0 0 0 0 0 0 0 0 0 0 0 0 0 0 0 0 0 0 0 0 0 0 0 0 0 0 0 0 0 0 0 0 0
0 0 0 0 0 0 0 0 0 0 0 0 0 0 0 0 0 0 0 0 0 0 0 0 0 0 0 0 0 0 0 0 0 0 0 0 0 0 0 0 0 0 0 0
0 0 0 0 0 0 0 0 0 0 0 0 0 0 0 0 0 0 0 0 0 0 0 0 0 0 0 0 0 0 0 0 0 0 0 0 0 0 0 0 0 0 0 0
0 0 0 0 0 0 0 0 0 0 0 0 0 0 0 0 0 0 0 0 0 0 0 0 0 0 0 0 0 0 0 0 0 0 0 0 0 0 0 0 0 0 0 0
0 0 0 0 0 0 0 0 0 0 0 0 0 0 0 0 0 0 0 0 0 0 0 0 0 0 0 0 0 0 0 0 0 0 0 0 0 0 0 0 0 0 0 0
0 0 0 0 0 0 0 0 0 0 0 0 0 0 0 0 0 0 0 0 0 0 0 0 0 0 0 0 0 0 0 0 0 0 0 0 0 0 0 0 0 0 0 0
0 0 0 0 0 0 0 0 0 0 0 0 0 0 0 0 0 0 0 0 0 0 0 0 0 0 0 0 0 0 0 0 0 0 0 0 0 0 0 0 0 0 0 0
0 0 0 0 0 0 0 0 0 0 0 0 0 0 0 0 0 0 0 0 0 0 0 0 0 0 0 0 0 0 0 0 0 0 0 0 0 0 0 0 0 0 0 0
0 0 0 0 0 0 0 0 0 0 0 0 0 0 0 0 0 0 0 0 0 0 0 0 0 0 0 0 0 0 0 0 0 0 0 0 0 0 0 0 0 0 0 0
0 0 0 0 0 0 0 0 0 0 0 0 0 0 0 0 0 0 0 0 0 0 0 0 0 0 0 0 0 0 0 0 0 0 0 0 0 0 0 0 0 0 0 0
0 0 0 0 0 0 0 0 0 0 0 0 0 0 0 0 0 0 0 0 0 0 0 0 0 0 0 0 0 0 0 0 0 0 0 0 0 0 0 0 0 0 0 0
0 0 0 0 0 0 0 0 0 0 0 0 0 0 0 0 0 0 0 0 0 0 0 0 0 0 0 0 0 0 0 0 0 0 0 0 0 0 0 0 0 0 0 0
0 0 0 0 0 0 0 0 0 0 0 0 0 0 0 0 0 0 0 0 0 0 0 0 0 0 0 0 0 0 0 0 0 0 0 0 0 0 0 0 0 0 0 0
0 0 0 0 0 0 0 0 0 0 0 0 0 0 0 0 0 0 0 0 0 0 0 0 0 0 0 0 0 0 0 0 0 0 0 0 0 0 0 0 0 0 0 0
0 0 0 0 0 0 0 0 0 0 0 0 0 0 0 0 0 0 0 0 0 0 0 0 0 0 0 0 0 0 0 0 0 0 0 0 0 0 0 0 0 0 0 0
0 0 0 0 0 0 0 0 0 0 0 0 0 0 0 0 0 0 0 0 0 0 0 0 0 0 0 0 0 0 0 0 0 0 0 0 0 0 0 0 0 0 0 0
0 0 0 0 0 0 0 0 0 0 0 0 0 0 0 0 0 0 0 0 0 0 0 0 0 0 0 0 0 0 0 0 0 0 0 0 0 0 0 0 0 0 0 0
0 0 0 0 0 0 0 0 0 0 0 0 0 0 0 0 0 0 0 0 0 0 0 0 0 0 0 0 0 0 0 0 0 0 0 0 0 0 0 0 0 0 0 0
0 0 0 0 0 0 0 0 0 0 0 0 0 0 0 0 0 0 0 0 0 0 0 0 0 0 0 0 0 0 0 0 0 0 0 0 0 0 0 0 0 0 0 0
0 0 0 0 0 0 0 0 0 0 0 0 0 0 0 0 0 0 0 0 0 0 0 0 0 0 0 0 0 0 0 0 0 0 0 0 0 0 0 0 0 0 0 0
0 0 0 0 0 0 0 0 0 0 0 0 0 0 0 0 0 0 0 0 0 0 0 0 0 0 0 0 0 0 0 0 0 0 0 0 0 0 0 0 0 0 0 0
0 0 0 0 0 0 0 0 0 0 0 0 0 0 0 0 0 0 0 0 0 0 0 0 0 0 0 0 0 0 0 0 0 0 0 0 0 0 0 0 0 0 0 0
0 0 0 0 0 0 0 0 0 0 0 0 0 0 0 0 0 0 0 0 0 0 0 0 0 0 0 0 0 0 0 0 0 0 0 0 0 0 0 0 0 0 0 0
0 0 0 0 0 0 0 0 0 0 0 0 0 0 0 0 0 0 0 0 0 0 0 0 0 0 0 0 0 0 0 0 0 0 0 0 0 0 0 0 0 0 0 0
0 0 0 0 0 0 0 0 0 0 0 0 0 0 0 0 0 0 0 0 0 0 0 0 0 0 0 0 0 0 0 0 0 0 0 0 0 0 0 0 0 0 0 0
Wind_Speed
8 4 4 6 7 7 9 9 9 7 5 5 4 4 2 2 2 2 2 2 2 3 3 3 3 2 1 1 1 1 1 2 3 3 4 4 5 5 5 5 6 5 5 5
10 8 7 9 9 10 10 10 9 8 6 2 3 3 2 1 2 1 1 1 1 2 3 3 3 4 3 1 0 1 1 2 2 2 3 4 4 5 5 5 5 5 6 6
10 8 7 9 10 11 10 8 7 6 3 2 2 2 2 2 2 1 1 2 2 0 1 1 3 3 3 3 2 0 1 2 1 2 3 3 5 5 5 4 4 5 5 5
8 8 10 1 3 1 4 6 6 5 1 1 1 2 2 2 2 2 3 3 2 0 1 1 1 2 2 2 2 1 1 1 1 1 2 3 3 4 5 4 3 4 4 4
7 9 9 4 5 4 4 4 4 3 2 1 0 2 3 4 3 3 4 4 3 2 1 1 2 2 1 0 1 1 1 1 1 1 1 2 3 4 4 4 4 3 4 4
6 7 6 3 8 4 2 3 4 3 3 1 1 0 3 5 5 5 5 4 3 1 0 1 2 2 1 2 1 1 1 1 1 0 1 2 2 3 3 3 4 4 3 3
8 9 4 6 7 4 2 2 5 4 3 1 3 4 4 5 5 5 4 3 2 1 1 1 1 0 2 2 2 2 2 1 1 1 2 2 2 2 3 3 4 4 3 2
7 8 4 7 6 3 4 6 5 4 4 4 4 5 4 4 5 4 4 3 2 1 0 1 1 1 2 1 2 1 1 1 2 3 3 2 2 2 3 3 4 4 3 2
2 1 4 2 4 5 3 4 3 3 4 3 3 3 4 3 4 4 3 3 2 0 0 1 0 1 2 1 1 1 2 3 3 4 4 3 3 3 3 3 2 3 2 2
3 3 5 4 4 3 2 2 2 2 2 2 2 3 3 3 3 4 3 3 2 0 0 0 0 1 1 2 2 3 4 4 4 4 4 3 3 3 2 2 2 3 2 2
6 3 4 5 5 4 3 3 3 3 3 2 3 3 3 3 4 3 3 3 2 1 1 2 1 1 1 2 3 4 5 4 4 3 3 3 3 3 3 3 3 3 3 2
5 4 5 7 9 7 6 4 4 4 5 4 3 3 3 4 4 4 4 3 2 2 2 2 3 3 3 2 3 4 5 5 3 3 2 2 3 3 6 7 8 9 8 6
2 3 5 8 8 7 6 5 4 4 5 5 4 4 4 4 4 4 4 4 3 3 3 3 4 5 5 4 4 4 5 5 3 3 3 3 3 3 4 5 9 11 11 11
7 7 6 7 6 7 7 7 6 6 5 5 4 4 4 5 5 5 4 4 4 4 4 4 4 5 6 5 4 5 5 5 4 3 4 4 4 4 4 4 4 4 9 14
6 5 5 7 8 8 7 7 7 7 6 6 5 4 5 5 5 5 4 4 4 5 5 5 6 6 6 7 7 6 4 3 4 4 4 4 4 4 4 5 4 4 3 5
8 6 7 9 9 9 9 9 8 7 6 6 5 5 5 6 5 5 5 5 5 5 5 6 6 5 6 6 7 6 5 7 6 5 4 4 4 5 4 4 4 4 4 3
10 11 11 11 11 10 9 8 8 7 7 6 6 5 6 6 5 5 5 5 5 5 6 6 6 6 6 7 7 5 5 6 8 5 4 5 5 5 5 5 4 4 4 4
10 10 11 11 10 10 9 9 8 8 7 7 6 6 5 5 5 5 5 5 5 6 6 6 6 6 6 6 6 5 5 5 4 5 5 4 5 5 5 5 6 6 5 5
7 7 8 9 9 9 9 9 9 8 8 7 7 6 5 5 5 5 6 6 5 5 5 6 8 6 5 7 9 5 5 6 5 5 5 7 6 5 5 6 6 6 6 6
5 7 8 9 9 9 9 9 9 8 7 7 7 7 6 5 5 5 6 6 4 3 4 5 5 5 6 7 10 5 5 6 5 5 5 5 5 6 6 6 7 7 6 6
7 8 9 9 9 9 9 9 8 8 7 6 6 6 6 5 5 4 4 4 4 4 4 5 4 4 5 8 9 4 4 5 5 5 5 6 6 6 6 7 7 7 7 7
7 8 9 9 9 9 8 8 8 8 7 6 6 6 5 5 5 5 4 3 3 4 3 3 3 6 10 10 4 4 4 5 5 4 5 5 6 6 6 7 7 7 7 7
7 8 9 9 9 9 9 8 8 7 6 6 5 5 5 4 3 3 3 2 3 3 2 2 5 9 12 6 3 3 4 4 4 4 5 5 5 6 6 7 6 7 7 7
7 8 9 9 9 9 8 7 6 6 5 5 4 4 4 3 2 2 3 4 2 1 1 2 6 9 9 4 3 3 3 3 3 4 4 4 4 5 5 6 6 6 6 8
7 7 8 8 7 6 7 7 6 5 5 4 4 3 3 2 2 2 2 2 1 1 1 3 6 7 4 3 3 4 3 3 4 4 4 4 4 5 5 5 6 6 6 7
5 5 4 5 4 3 4 4 4 4 4 3 3 3 3 3 3 2 1 1 1 1 1 2 2 3 2 3 3 4 3 4 4 4 4 4 5 5 5 6 8 7 7 7
5 4 3 3 3 2 3 3 3 4 3 3 3 3 2 2 2 1 1 0 1 1 1 2 2 2 2 3 3 4 3 3 3 3 4 4 4 4 5 6 6 6 6 7
Wind_Direction
278 256 271 271 260 234 234 253 271 300 328 352 37 50 57 113 140 139 147 166 170 166 176 168 172 137 112 317 330 345 36 46 26 360 1 357 347 346 359 357 350 349 354 355
276 268 259 261 255 248 242 245 259 279 292 337 80 70 36 64 112 130 149 156 167 171 165 178 165 152 165 185 246 317 50 67 40 352 359 355 340 345 353 347 348 356 356 356
283 274 262 258 246 236 234 232 238 255 273 45 52 53 39 34 73 117 118 113 113 266 159 187 149 151 166 169 167 123 58 82 57 7 360 349 346 347 342 342 359 359 353 358
275 270 262 247 79 174 231 230 224 226 232 54 21 73 84 64 54 64 101 110 118 91 85 36 80 106 107 128 131 109 52 55 64 34 360 345 340 334 331 339 351 348 343 351
267 269 267 197 162 171 202 224 209 210 169 118 123 177 136 109 83 65 75 83 90 69 58 37 53 61 32 259 125 112 72 21 37 49 351 328 326 325 327 336 337 335 332 352
268 273 282 100 111 118 226 229 147 133 116 111 270 168 97 93 90 82 80 81 90 91 357 76 67 57 322 313 54 88 78 16 17 15 290 294 306 312 316 318 317 320 332 348
260 268 265 114 118 134 224 108 104 107 103 84 58 69 85 92 92 93 94 95 104 123 42 60 55 14 293 329 19 57 51 0 320 285 265 251 261 280 296 304 306 309 317 324
225 244 235 137 156 172 86 89 85 84 76 72 73 79 82 91 103 108 111 111 118 140 136 98 28 317 313 358 14 36 14 294 283 276 279 285 261 262 272 288 299 299 304 314
241 122 92 80 86 75 61 87 84 81 80 89 102 100 93 96 110 111 113 118 126 175 217 151 144 306 324 336 338 310 270 257 257 258 248 245 248 260 266 268 276 288 297 304
264 169 150 142 122 112 97 92 87 81 87 98 103 100 99 96 96 103 101 104 111 156 304 343 99 83 331 331 314 292 280 270 257 251 253 247 226 234 249 266 282 293 296 297
251 177 146 162 160 148 143 146 134 118 103 96 93 94 95 92 84 90 95 91 91 75 13 356 35 74 28 345 322 302 289 281 277 263 253 256 250 233 235 232 220 239 268 287
244 210 199 177 163 162 163 158 146 137 123 107 100 98 91 86 82 81 84 85 81 54 18 4 17 39 29 4 333 319 311 311 311 306 291 268 264 264 237 233 235 233 233 237
232 85 83 114 140 154 155 149 145 133 122 115 103 99 98 95 87 83 79 71 64 53 31 21 24 24 15 6 344 324 314 313 311 308 305 294 282 273 275 259 243 245 243 240
123 122 137 153 156 160 156 153 147 130 118 110 104 104 101 96 88 79 71 68 65 55 39 31 30 18 3 355 346 328 319 319 326 314 307 297 289 282 274 271 266 254 238 234
172 180 166 149 153 161 160 160 153 140 130 121 111 106 102 99 91 80 67 61 67 61 42 30 28 13 0 358 349 333 324 321 320 310 302 300 296 292 286 283 279 274 264 234
184 178 161 164 169 170 171 170 159 145 135 126 120 112 105 99 94 85 71 62 63 56 46 35 22 1 1 3 348 335 325 326 326 316 313 313 313 313 311 307 301 295 288 275
181 182 181 182 179 177 174 165 152 146 139 132 127 120 116 112 105 95 85 80 74 60 49 36 12 355 11 13 350 333 326 328 331 326 321 323 324 320 316 313 312 310 302 297
194 188 184 181 176 171 164 153 145 139 134 130 128 122 117 111 104 96 86 78 80 67 46 29 3 352 14 15 349 330 328 330 334 336 332 332 325 322 325 325 323 319 314 310
185 177 170 166 162 158 150 143 139 134 132 135 133 123 111 105 100 94 84 70 60 53 32 11 356 3 8 9 353 330 332 336 339 339 339 338 336 333 332 331 330 329 328 328
152 149 149 146 145 142 139 136 135 134 136 137 132 126 120 113 106 101 95 85 66 38 11 3 1 8 6 355 345 331 335 338 340 340 341 339 339 339 338 337 335 335 337 338
142 141 140 139 137 135 135 136 136 136 135 134 132 128 121 112 102 95 99 95 78 33 356 359 15 17 0 341 330 328 334 337 341 343 343 342 340 340 340 341 339 339 339 338
143 143 144 142 141 140 139 137 137 136 133 130 128 126 123 119 115 106 94 93 86 45 12 8 24 5 347 339 329 333 338 342 345 345 344 341 339 338 339 339 337 337 337 336
154 153 152 152 151 145 140 138 138 134 133 133 133 128 118 103 103 115 110 90 74 42 20 7 353 342 338 334 323 332 342 348 348 345 342 339 338 338 338 338 337 337 336 336
160 159 158 155 150 147 145 140 135 134 135 131 129 127 127 129 123 109 107 113 100 47 354 343 333 330 329 320 323 338 343 341 336 332 333 331 332 333 334 333 333 333 333 334
162 161 159 156 153 150 147 145 144 144 143 141 140 138 130 118 116 104 100 111 127 253 295 314 320 320 318 325 342 346 342 334 328 324 324 327 329 329 331 331 331 328 326 326
160 155 151 152 142 139 146 151 155 154 155 154 153 150 142 137 138 144 157 183 225 270 287 295 311 317 332 338 334 327 323 325 332 337 336 333 331 331 328 330 329 327 325 324
153 144 136 139 136 152 160 162 161 163 164 162 155 145 137 134 136 143 163 275 318 318 320 322 326 327 323 318 316 317 320 322 324 325 324 324 323 324 325 327 324 321 321 320